COSMOS 1417

Satellite information

Favourite Embed

Satellite Type and Status

PAYLOADIN ORBIT

Key statistics

Satellite COSMOS 1417 at a glance.

Uptime

15602

Days in orbit

Revolutions

≈ 13.8

Per day

Orbit

LEO

Low Earth Orbit

Inclination

83.0

Latest

Satellite identification and parameters

Extended collection of information and parameters for COSMOS 1417.

Object identification

Identified? True

Debris? False

Object name: COSMOS 1417

International designator: 1982-102A

Object number (NORAD): 13617

Object ID (CCSDS): 13617

Country: COMMONWEALTH OF INDEPENDENT STATES (CIS)

Current information (Y/N): Y

RCS size: LARGE

Orbital parameters

Period: 104.683 minutes

Inclination: 82.9688 deg

SMA: 7357.736 km

Apoapsis: 1004.139 km

Periapsis: 955.063 km

RAAN: 154.5342 deg

Eccentricy: 0.003335

Argument of periapsis: 313.5685 deg

Mean anomaly: 165.3357 deg

Mean motion: 13.75581862 rev/day

Mean motion (dot): 0.00000075 rev/day2

B* drag term: 0.000061883 1/REarth

Two-line elements (TLE)

Creation date: July 6, 2025, 6:05 p.m.

Reference frame: TEME

Reference center: EARTH

Epoch: July 6, 2025, 11:22 a.m. UTC

TLE line 0: 0 COSMOS 1417

TLE line 1: 1 13617U 82102A 25187.47424113 .00000075 00000-0 61883-4 0 9992

TLE line 2: 2 13617 82.9688 154.5342 0033350 313.5685 165.3357 13.75581862143420

Live tracking on map

Real-time ground track for satellite COSMOS 1417.

In-orbit conjunctions

A list of the most updated potential collisions computed for object COSMOS 1417.

Target Orbit TCA Probability of collision Miss distance Type
THORAD AGENA D DEB SSO 2024-11-14 12:57:33 0.0003375204 125.0 (m) DEBRIS
FENGYUN 1C DEB SSO 2024-09-27 21:29:33 0.0002137899 227.0 (m) DEBRIS
FENGYUN 1C DEB SSO 2024-09-04 14:53:27 0.008104082 58.0 (m) DEBRIS

Associated space launch

Navigation satellite providing location information for the Tsiklon-B navigation system

COSMOS 1417 was lifted into orbit during the mission ‘Kosmos-3M | Parus 35’, on board a Kosmos-3M space rocket.

The launch took place on Oct. 19, 1982, 5:58 a.m. from 132/1 (132L).

For more information about the launch, click the button.

Launch to space Kosmos-3M | Parus 35
Kosmos-3M | Parus 35

Agency: N/A

Status: Launch Successful

Launch date: Oct. 19, 1982, 5:58 a.m. UTC

Rocket: Kosmos-3M

Launch pad: 132/1 (132L)

Location: Plesetsk Cosmodrome, Russian Federation

...

Latest news about this satellite

There are no fresh news available about this satellite. Check back as we update our databases every day.


Newsletter sign-up

Weekly statistics, charts and insights to help you stay on top of the space industry.